TimeEST,TemperatureF,Dew PointF,Humidity,Sea Level PressureIn,VisibilityMPH,Wind Direction,Wind SpeedMPH,Gust SpeedMPH,PrecipitationIn,Events,Conditions,WindDirDegrees,DateUTC
12:15 AM,7.5,-12.8,39,30.17,10.0,NW,10.4,17.3,N/A,,Clear,310,2014-01-07 05:15:00
12:35 AM,7.2,-13.0,39,30.18,10.0,NW,10.4,16.1,N/A,,Clear,310,2014-01-07 05:35:00
12:55 AM,6.8,-13.0,40,30.18,10.0,NW,9.2,19.6,N/A,,Clear,320,2014-01-07 05:55:00
1:15 AM,6.6,-13.0,40,30.18,10.0,WNW,12.7,20.7,N/A,,Clear,300,2014-01-07 06:15:00
1:35 AM,6.3,-13.4,40,30.19,10.0,NW,13.8,23.0,N/A,,Clear,310,2014-01-07 06:35:00
1:55 AM,6.3,-13.0,41,30.19,10.0,WNW,11.5,20.7,N/A,,Clear,290,2014-01-07 06:55:00
2:15 AM,6.1,-13.2,41,30.20,10.0,NW,9.2,17.3,N/A,,Clear,310,2014-01-07 07:15:00
2:35 AM,6.3,-13.0,41,30.22,10.0,WNW,8.1,-,N/A,,Clear,300,2014-01-07 07:35:00
2:55 AM,6.1,-12.8,42,30.23,10.0,WNW,9.2,-,N/A,,Clear,300,2014-01-07 07:55:00
3:15 AM,5.9,-12.1,44,30.24,10.0,WNW,8.1,-,N/A,,Clear,300,2014-01-07 08:15:00
3:35 AM,5.9,-11.4,45,30.25,10.0,WNW,3.5,-,N/A,,Clear,300,2014-01-07 08:35:00
3:55 AM,5.9,-11.0,46,30.25,10.0,WNW,4.6,-,N/A,,Clear,300,2014-01-07 08:55:00
4:15 AM,6.1,-11.7,44,30.25,10.0,WNW,8.1,-,N/A,,Clear,290,2014-01-07 09:15:00
4:35 AM,5.9,-11.4,45,30.25,10.0,West,3.5,-,N/A,,Clear,280,2014-01-07 09:35:00
4:55 AM,5.5,-10.8,47,30.25,10.0,WNW,5.8,-,N/A,,Clear,300,2014-01-07 09:55:00
5:15 AM,5.5,-11.0,47,30.26,10.0,NW,5.8,-,N/A,,Clear,320,2014-01-07 10:15:00
5:35 AM,5.0,-10.5,49,30.27,10.0,Calm,Calm,-,N/A,,Clear,0,2014-01-07 10:35:00
5:55 AM,5.4,-10.5,48,30.26,10.0,Calm,Calm,-,N/A,,Clear,0,2014-01-07 10:55:00
6:15 AM,5.0,-9.2,52,30.27,10.0,Calm,Calm,-,N/A,,Clear,0,2014-01-07 11:15:00
6:35 AM,4.8,-9.2,52,30.29,10.0,Calm,Calm,-,N/A,,Clear,0,2014-01-07 11:35:00
6:55 AM,5.0,-8.5,54,30.29,10.0,West,3.5,-,N/A,,Clear,260,2014-01-07 11:55:00
7:15 AM,4.8,-8.3,55,30.28,10.0,West,4.6,-,N/A,,Clear,270,2014-01-07 12:15:00
7:35 AM,4.5,-7.8,57,30.29,10.0,Calm,Calm,-,N/A,,Clear,0,2014-01-07 12:35:00
7:55 AM,4.8,-8.0,56,30.28,10.0,Calm,Calm,-,N/A,,Clear,0,2014-01-07 12:55:00
8:15 AM,5.7,-7.4,55,30.32,10.0,WSW,3.5,-,N/A,,Clear,240,2014-01-07 13:15:00
8:35 AM,6.8,-7.6,52,30.35,10.0,West,4.6,-,N/A,,Clear,260,2014-01-07 13:35:00
8:55 AM,8.1,-7.8,49,30.37,10.0,West,6.9,-,N/A,,Clear,270,2014-01-07 13:55:00
9:15 AM,8.6,-8.5,46,30.38,10.0,WSW,6.9,-,N/A,,Clear,240,2014-01-07 14:15:00
9:35 AM,9.5,-10.7,40,30.39,10.0,West,6.9,-,N/A,,Clear,270,2014-01-07 14:35:00
9:55 AM,10.4,-10.8,38,30.39,10.0,West,8.1,-,N/A,,Clear,270,2014-01-07 14:55:00
10:15 AM,11.5,-11.2,36,30.40,10.0,NW,6.9,-,N/A,,Clear,310,2014-01-07 15:15:00
10:35 AM,12.9,-10.3,35,30.40,10.0,WNW,5.8,-,N/A,,Clear,300,2014-01-07 15:35:00
10:55 AM,13.5,-11.0,33,30.39,10.0,West,9.2,-,N/A,,Clear,280,2014-01-07 15:55:00
11:15 AM,14.5,-11.2,31,30.37,10.0,NW,9.2,-,N/A,,Clear,310,2014-01-07 16:15:00
11:35 AM,16.7,-10.5,29,30.37,10.0,West,8.1,-,N/A,,Clear,280,2014-01-07 16:35:00
11:55 AM,17.8,-10.1,29,30.35,10.0,WNW,6.9,-,N/A,,Clear,290,2014-01-07 16:55:00
12:15 PM,18.1,-11.6,26,30.32,10.0,NW,8.1,-,N/A,,Clear,310,2014-01-07 17:15:00
12:35 PM,18.9,-12.1,25,30.31,10.0,NW,10.4,20.7,N/A,,Clear,310,2014-01-07 17:35:00
12:55 PM,19.6,-11.2,25,30.29,10.0,West,10.4,17.3,N/A,,Clear,270,2014-01-07 17:55:00
1:15 PM,19.9,-10.5,26,30.30,10.0,NW,9.2,-,N/A,,Clear,320,2014-01-07 18:15:00
1:35 PM,20.8,-11.4,24,30.29,10.0,WNW,8.1,-,N/A,,Clear,290,2014-01-07 18:35:00
1:55 PM,22.1,-10.1,24,30.28,10.0,NW,4.6,-,N/A,,Clear,320,2014-01-07 18:55:00
2:15 PM,23.0,-10.7,22,30.29,10.0,WNW,9.2,-,N/A,,Clear,300,2014-01-07 19:15:00
2:35 PM,22.8,-9.0,24,30.31,10.0,NNW,5.8,-,N/A,,Clear,340,2014-01-07 19:35:00
2:55 PM,21.9,-9.6,25,30.30,10.0,NNW,4.6,-,N/A,,Clear,330,2014-01-07 19:55:00
3:15 PM,22.8,-8.9,25,30.30,10.0,NNW,5.8,-,N/A,,Clear,340,2014-01-07 20:15:00
3:35 PM,23.0,-8.9,24,30.31,10.0,NNW,6.9,-,N/A,,Clear,340,2014-01-07 20:35:00
3:55 PM,23.2,-8.5,25,30.32,10.0,North,4.6,-,N/A,,Clear,350,2014-01-07 20:55:00
4:15 PM,23.0,-8.5,25,30.33,10.0,North,3.5,-,N/A,,Clear,350,2014-01-07 21:15:00
4:35 PM,23.2,-8.1,25,30.33,10.0,North,4.6,-,N/A,,Clear,360,2014-01-07 21:35:00
4:55 PM,22.6,-8.5,25,30.34,10.0,Calm,Calm,-,N/A,,Clear,0,2014-01-07 21:55:00
5:15 PM,21.6,-6.5,29,30.35,10.0,North,3.5,-,N/A,,Clear,360,2014-01-07 22:15:00
5:35 PM,20.8,-6.2,30,30.35,10.0,North,3.5,-,N/A,,Clear,350,2014-01-07 22:35:00
5:55 PM,20.3,-6.3,31,30.35,10.0,North,4.6,-,N/A,,Clear,350,2014-01-07 22:55:00
6:15 PM,19.6,-6.0,32,30.36,10.0,North,3.5,-,N/A,,Clear,350,2014-01-07 23:15:00
6:35 PM,19.2,-5.1,34,30.36,10.0,NNW,3.5,-,N/A,,Clear,340,2014-01-07 23:35:00
6:55 PM,19.0,-5.1,34,30.36,10.0,Calm,Calm,-,N/A,,Clear,0,2014-01-07 23:55:00
7:15 PM,18.1,-3.1,39,30.35,10.0,Calm,Calm,-,N/A,,Clear,0,2014-01-08 00:15:00
7:35 PM,17.8,-3.5,39,30.37,10.0,Calm,Calm,-,N/A,,Clear,0,2014-01-08 00:35:00
7:55 PM,17.4,-2.4,42,30.38,10.0,Calm,Calm,-,N/A,,Clear,0,2014-01-08 00:55:00
8:15 PM,16.7,-0.0,48,30.38,10.0,Calm,Calm,-,N/A,,Clear,0,2014-01-08 01:15:00
8:35 PM,17.2,-0.8,45,30.37,10.0,Calm,Calm,-,N/A,,Clear,0,2014-01-08 01:35:00
8:55 PM,15.8,-0.4,49,30.38,10.0,Calm,Calm,-,N/A,,Clear,0,2014-01-08 01:55:00
9:15 PM,16.2,0.3,50,30.39,10.0,Calm,Calm,-,N/A,,Clear,0,2014-01-08 02:15:00
9:35 PM,15.1,3.9,61,30.39,10.0,Calm,Calm,-,N/A,,Clear,0,2014-01-08 02:35:00
9:55 PM,14.5,5.2,66,30.40,10.0,Calm,Calm,-,N/A,,Clear,0,2014-01-08 02:55:00
10:15 PM,14.7,3.0,60,30.39,10.0,Calm,Calm,-,N/A,,Clear,0,2014-01-08 03:15:00
10:35 PM,14.9,3.6,61,30.40,10.0,Calm,Calm,-,N/A,,Clear,0,2014-01-08 03:35:00
10:55 PM,14.4,5.2,67,30.40,10.0,Calm,Calm,-,N/A,,Clear,0,2014-01-08 03:55:00
11:15 PM,14.5,3.7,62,30.39,10.0,Calm,Calm,-,N/A,,Clear,0,2014-01-08 04:15:00
11:35 PM,14.4,4.5,65,30.39,10.0,Calm,Calm,-,N/A,,Clear,0,2014-01-08 04:35:00
11:55 PM,14.4,4.6,65,30.38,10.0,Calm,Calm,-,N/A,,Clear,0,2014-01-08 04:55:00